Weather in Ugol'nyye Kopi

Russia / Chukotka Autonomous Okrug     64°44′29″N   177°41′23″E
temp.,
°C
wind,
m/s
gust,
m/s
humid.,
%
clouds,
%
prec.,
mm/h
press.,
hPa
HPBL,
m
17 may, tue
tue1700:00−1ese46711 0.0 1026121
03:00−1ese45711 0.0 102486
06:00+1ese23695 0.0 1023177
09:00+3s226720 0.0 1022283
12:00+4s227124 0.0 1021351
15:00+5s2276100 0.0 1020301
18:00+4sse3380100 0.0 1019193
21:00+2se228588 0.0 101841
18 may, wed
wed1800:000sse3389100 0.0 101839
03:000se2393100 0.0 101762
06:00+1se238898 0.0 1016155
09:00+2sse338256 0.0 1016326
12:00+3sse338142 0.0 1016352
15:00+6sse4476100 0.0 1014415
18:00+5ese577962 0.0 1013272
21:00+2se578890 0.0 1014188
19 may, thu
thu1900:00+3se4691100 0.0 1015131
03:00+2se3492100 0.0 101596
06:00+3s2290100 0.0 101695
09:00+4sse3484100 0.0 1017288
12:00+4sse3486100 0.1 1018330
15:00+5s3480100 0.1 1019426
18:00+5sw118396 0.1 1020226
21:00+4nw118798 0.0 102139
20 may, fri
fri2000:00+4nne2291100 0.1 102231
03:00+4ene1191100 0.0 102313
06:00+4ssw118895 0.0 102489
09:00+4s118367 0.0 1024296
12:00+5sse217865 0.1 1025446
15:00+6sse327542 0.0 1026557
18:00+5sse228081 0.0 1026306
21:00+4sse128499 0.0 1027139
21 may, sat
sat2100:00+4se138678 0.0 1027122
03:00+3se128984 0.0 1027112
06:00+3sse128796 0.0 1027245
09:00+3s1182100 0.0 1027437
12:00+4ssw2181100 0.1 1026394
15:00+4s3375100 0.0 1025483
18:00+3s3377100 0.0 1024268
21:00+2sse2381100 0.0 1024145